[[{"header":{"parameterUnit":"m.s-1","parameterCategory":1,"la1":30.2991,"la2":30.254,"lo1":-89.0895,"lo2":-89.0444,"dy":0.0017,"dx":0.0017,"nx":28,"ny":28,"refTime":"2025-08-31T21:00:00:Z","depth":0,"parameterNumber":2,"parameterNumberName":"U-component_of_WINDS"},"data":[0,0,0,0,0,0,0,0,0,0,0,0,0,0,0,0,0,0,0,0,0,0,0,0,0,0,0,0,0,0,0,0,0,0,0,0,0,0,0,0,0,0,0,0,0,0,0,0,0,0,0,0,0,0,0,0,0,0,-0.2349,-0.2349,0,-0.2338,-0.2338,-0.2338,-0.2294,-0.2293,-0.2292,-0.2291,-0.2283,-0.2284,-0.2285,0,0,0,0,0,0,0,0,0,0,0,0,0,-0.2333,-0.2334,-0.2349,-0.2349,-0.2348,-0.2338,-0.2338,-0.2338,-0.2294,-0.2293,-0.2291,-0.229,-0.2283,-0.2284,-0.2285,0,0,0,0,0,0,0,0,0,0,0,0,0,-0.2333,-0.2334,-0.2349,-0.2325,-0.2323,-0.2338,-0.2338,-0.2337,-0.2294,-0.2293,-0.2291,-0.229,-0.2283,-0.2284,-0.2285,-0.2323,0,0,-0.2288,-0.2289,0,0,0,0,0,0,0,0,-0.2333,-0.2334,-0.2329,-0.2327,-0.2324,-0.2315,-0.2329,-0.2333,-0.2295,-0.2305,-0.2291,-0.2289,-0.2295,-0.2295,-0.2297,-0.2322,-0.2322,-0.2288,-0.2289,-0.229,-0.229,0,0,0,0,0,0,0,-0.2333,-0.2334,-0.2344,-0.2329,-0.2326,-0.2316,-0.2314,-0.233,-0.2309,-0.2304,-0.2301,-0.23,-0.2294,-0.2296,-0.2296,-0.2322,-0.2288,-0.2289,-0.229,-0.2291,-0.2377,-0.2379,0,0,0,0,0,0,-0.2336,-0.2334,-0.2345,-0.2344,-0.2325,-0.2317,-0.2315,-0.232,-0.2309,-0.2306,-0.2301,-0.2298,-0.2295,-0.2295,-0.2296,-0.234,-0.229,-0.2291,-0.2291,-0.2375,-0.2377,-0.2379,0,0,0,0,0,0,-0.2336,-0.2338,-0.2345,-0.2338,-0.2338,-0.2319,-0.2325,-0.2321,-0.2322,-0.2307,-0.2303,-0.2307,-0.2293,-0.2294,-0.2316,-0.2339,-0.2291,-0.2292,-0.2374,-0.2376,-0.2378,-0.2428,0,0,0,0,0,0,-0.2336,-0.2338,-0.2352,-0.2339,-0.2339,-0.2365,-0.2326,-0.2321,-0.2324,-0.232,-0.2311,-0.2308,-0.2292,-0.2314,-0.2317,-0.234,-0.2293,-0.2371,-0.2375,-0.2378,-0.2424,-0.2432,-0.2438,0,0,0,0,0,-0.2336,-0.2367,-0.2353,-0.2354,-0.2356,-0.2367,-0.2367,-0.2347,-0.2326,-0.234,-0.233,-0.2309,-0.2335,-0.2317,-0.232,-0.2343,-0.237,-0.2374,-0.2377,-0.2421,-0.2431,-0.2438,0,0,0,0,0,0,-0.2386,-0.2365,-0.2349,-0.2377,-0.2374,-0.2359,-0.2377,-0.2357,-0.2361,-0.2357,-0.2332,-0.2331,-0.2356,-0.2351,-0.2331,-0.2379,-0.2349,-0.2353,-0.2382,-0.239,-0.2397,-0.2399,-0.2294,0,0,0,0,0,-0.2399,-0.2409,-0.2391,-0.2418,-0.2416,-0.2397,-0.2401,-0.2385,-0.2381,-0.238,-0.2371,-0.2369,-0.2376,-0.2383,-0.2389,-0.2422,-0.242,-0.2439,-0.2446,-0.2452,-0.2457,-0.2475,-0.2483,-0.2391,-0.2391,-0.2391,0,0,-0.2429,-0.2419,-0.2427,-0.2427,-0.2423,-0.2434,-0.2396,-0.241,-0.2418,-0.2382,-0.2403,-0.2395,-0.2391,-0.2419,-0.2431,-0.2416,-0.2481,-0.2457,-0.2461,-0.2463,-0.2479,-0.2488,-0.2496,-0.2394,-0.2393,-0.2393,0,0,-0.249,-0.2482,-0.2504,-0.2499,-0.2492,-0.2478,-0.2483,-0.2471,-0.2465,-0.2484,-0.2457,-0.2466,-0.248,-0.2478,-0.2479,-0.2535,-0.2517,-0.2538,-0.2576,-0.2593,-0.2601,-0.2607,-0.2629,-0.2637,-0.2542,-0.2542,-0.2542,0,-0.2529,-0.2544,-0.2518,-0.2533,-0.2534,-0.2499,-0.2521,-0.2518,-0.2514,-0.2516,-0.2498,-0.2514,-0.2509,-0.2536,-0.2549,-0.255,-0.2556,-0.2541,-0.2601,-0.2608,-0.2613,-0.2634,-0.2642,-0.2545,-0.2545,-0.2545,-0.2544,0,-0.2592,-0.2602,-0.2621,-0.2616,-0.2618,-0.2637,-0.2615,-0.262,-0.2604,-0.2592,-0.2611,-0.2603,-0.2607,-0.2611,-0.2596,-0.2636,-0.2627,-0.2605,-0.2576,-0.2625,-0.2644,-0.2652,-0.2549,-0.2548,-0.2547,-0.2547,0,0,-0.2688,-0.2666,-0.2673,-0.2671,-0.2658,-0.2667,-0.2683,-0.2685,-0.2691,-0.2688,-0.2702,-0.2713,-0.2693,-0.2694,-0.2677,-0.2692,-0.2738,-0.2669,-0.2668,-0.2684,-0.2783,-0.2802,-0.2811,-0.2724,-0.2725,-0.2726,-0.2784,0,-0.2747,-0.2774,-0.275,-0.2782,-0.2791,-0.2757,-0.2771,-0.2765,-0.2754,-0.2761,-0.2748,-0.2757,-0.2728,-0.2729,-0.2741,-0.273,-0.2759,-0.2725,-0.2739,-0.274,-0.2744,-0.2821,-0.2841,-0.2896,-0.2791,-0.2793,-0.2794,0,-0.2821,-0.282,-0.2852,-0.2837,-0.284,-0.2853,-0.2853,-0.2859,-0.2852,-0.2842,-0.2842,-0.282,-0.2836,-0.2804,-0.2825,-0.2803,-0.2806,-0.2801,-0.2803,-0.2806,-0.2772,-0.2829,-0.2913,-0.2923,-0.2805,-0.2804,-0.2803,0,-0.2891,-0.2897,-0.2917,-0.2915,-0.2897,-0.2907,-0.29,-0.2891,-0.2893,-0.2892,-0.2894,-0.2895,-0.2897,-0.2899,-0.2878,-0.2857,-0.2903,-0.2869,-0.2897,-0.2898,-0.2912,-0.2912,-0.3001,-0.2909,-0.2909,-0.2909,-0.2909,0,-0.2961,-0.2983,-0.2947,-0.2961,-0.2983,-0.2955,-0.2978,-0.2968,-0.2959,-0.297,-0.2939,-0.295,-0.2921,-0.2929,-0.2912,-0.2933,-0.2934,-0.2927,-0.2924,-0.2932,-0.2933,-0.2937,-0.2934,-0.2911,-0.291,-0.291,-0.291,0,-0.3045,-0.3021,-0.3041,-0.3021,-0.3016,-0.3035,-0.3018,-0.3029,-0.3014,-0.3027,-0.3029,-0.3006,-0.3013,-0.2991,-0.2996,-0.2985,-0.3016,-0.3004,-0.3019,-0.3016,-0.3046,-0.3045,-0.3143,-0.3155,-0.3053,-0.3054,-0.3055,0,-0.3093,-0.3109,-0.3089,-0.3093,-0.3088,-0.3095,-0.3096,-0.3068,-0.3071,-0.3062,-0.3075,-0.3078,-0.3081,-0.3094,-0.3078,-0.3081,-0.3071,-0.3105,-0.3072,-0.308,-0.3075,-0.3075,-0.3077,-0.3114,-0.3115,-0.3116,-0.3117,0,-0.3182,-0.3169,-0.3172,-0.3171,-0.3173,-0.3171,-0.3166,-0.3172,-0.3141,-0.3146,-0.3152,-0.3153,-0.3156,-0.3161,-0.316,-0.3153,-0.3131,-0.3126,-0.3133,-0.3144,-0.3153,-0.3151,-0.3041,-0.3125,-0.3125,-0.3124,-0.3123,-0.3123,-0.3251,-0.3264,-0.3251,-0.3255,-0.3248,-0.3245,-0.3254,-0.3239,-0.3243,-0.3242,-0.3224,-0.3234,-0.3225,-0.3221,-0.3216,-0.3224,-0.3208,-0.3218,-0.3221,-0.3225,-0.3231,-0.3148,-0.3223,-0.3223,-0.3223,-0.3222,-0.3222,0,-0.3341,-0.3331,-0.3334,-0.3328,-0.3331,-0.3305,-0.3299,-0.3304,-0.3312,-0.3305,-0.3306,-0.3313,-0.3317,-0.33,-0.3302,-0.3311,-0.3301,-0.3313,-0.3314,-0.3313,-0.3244,-0.3239,-0.3322,-0.3322,-0.3321,-0.3321,-0.3321,-0.3321,-0.3388,-0.3408,-0.3393,-0.3408,-0.3397,-0.3406,-0.3404,-0.3401,-0.3394,-0.3403,-0.3405,-0.3393,-0.3382,-0.3382,-0.3385,-0.3379,-0.3383,-0.3399,-0.3391,-0.3327,-0.3318,-0.3309,-0.3304,-0.3399,-0.3399,-0.346,-0.346,-0.3461]},{"header":{"parameterUnit":"m.s-1","parameterCategory":1,"la1":30.2991,"la2":30.254,"lo1":-89.0895,"lo2":-89.0444,"dy":0.0017,"dx":0.0017,"nx":28,"ny":28,"refTime":"2025-08-31T21:00:00:Z","depth":0,"parameterNumber":3,"parameterNumberName":"V-component_of_WINDS"},"data":[0,0,0,0,0,0,0,0,0,0,0,0,0,0,0,0,0,0,0,0,0,0,0,0,0,0,0,0,0,0,0,0,0,0,0,0,0,0,0,0,0,0,0,0,0,0,0,0,0,0,0,0,0,0,0,0,0,0,-0.0381,-0.0382,0,-0.0488,-0.0489,-0.0491,-0.0543,-0.0543,-0.0543,-0.0543,-0.0654,-0.0657,-0.066,0,0,0,0,0,0,0,0,0,0,0,0,0,-0.0221,-0.0224,-0.0381,-0.0382,-0.0384,-0.0488,-0.049,-0.0491,-0.0543,-0.0543,-0.0543,-0.0543,-0.0653,-0.0657,-0.066,0,0,0,0,0,0,0,0,0,0,0,0,0,-0.0306,-0.0225,-0.0381,-0.0422,-0.0427,-0.0488,-0.049,-0.0491,-0.0543,-0.0543,-0.0543,-0.0543,-0.0652,-0.0656,-0.0661,-0.0689,0,0,-0.0674,-0.0676,0,0,0,0,0,0,0,0,-0.0301,-0.0312,-0.0415,-0.0419,-0.0425,-0.0502,-0.0474,-0.0558,-0.0543,-0.0499,-0.0543,-0.0543,-0.0604,-0.0612,-0.0632,-0.0694,-0.0699,-0.0675,-0.0678,-0.0679,-0.0681,0,0,0,0,0,0,0,-0.0295,-0.0307,-0.0424,-0.0416,-0.0422,-0.0435,-0.0447,-0.049,-0.055,-0.0503,-0.0507,-0.0519,-0.0606,-0.0628,-0.0635,-0.0701,-0.0675,-0.0679,-0.0681,-0.0683,-0.0789,-0.0789,0,0,0,0,0,0,-0.0282,-0.0302,-0.042,-0.0427,-0.0361,-0.0438,-0.0452,-0.0477,-0.055,-0.0561,-0.0519,-0.0521,-0.062,-0.063,-0.0639,-0.0677,-0.0679,-0.0684,-0.0686,-0.0789,-0.0789,-0.0789,0,0,0,0,0,0,-0.0279,-0.0292,-0.0416,-0.0366,-0.0382,-0.0441,-0.047,-0.048,-0.0501,-0.0562,-0.0573,-0.053,-0.0621,-0.0633,-0.0676,-0.0681,-0.0686,-0.069,-0.0789,-0.0789,-0.0789,-0.0751,0,0,0,0,0,0,-0.0274,-0.0291,-0.0302,-0.0365,-0.0385,-0.045,-0.047,-0.0482,-0.0509,-0.0512,-0.0575,-0.0585,-0.0622,-0.0669,-0.068,-0.0687,-0.0693,-0.0789,-0.0789,-0.0789,-0.0752,-0.075,-0.0748,0,0,0,0,0,-0.0268,-0.0288,-0.0303,-0.0317,-0.04,-0.0451,-0.0462,-0.0503,-0.0509,-0.0521,-0.0559,-0.0583,-0.0678,-0.0673,-0.0686,-0.0695,-0.0789,-0.0789,-0.0789,-0.0753,-0.0751,-0.0748,0,0,0,0,0,0,-0.0225,-0.0297,-0.0314,-0.0355,-0.0396,-0.0459,-0.0476,-0.0499,-0.0539,-0.0541,-0.059,-0.0604,-0.0642,-0.0673,-0.0665,-0.0725,-0.0736,-0.0739,-0.0704,-0.0702,-0.07,-0.0692,-0.0697,0,0,0,0,0,-0.022,-0.0255,-0.0316,-0.0346,-0.0366,-0.0417,-0.044,-0.0468,-0.0513,-0.0531,-0.0573,-0.0615,-0.0655,-0.068,-0.072,-0.0756,-0.0771,-0.0769,-0.0767,-0.0765,-0.0767,-0.0788,-0.0787,-0.079,-0.079,-0.079,0,0,-0.0211,-0.0255,-0.0274,-0.0339,-0.0374,-0.0408,-0.0431,-0.0468,-0.0494,-0.0537,-0.0579,-0.0611,-0.0662,-0.0701,-0.0721,-0.0728,-0.0769,-0.0765,-0.0763,-0.0767,-0.0788,-0.0788,-0.0787,-0.0791,-0.0791,-0.0791,0,0,-0.0212,-0.0249,-0.0277,-0.0311,-0.0364,-0.0397,-0.0404,-0.0463,-0.0486,-0.0529,-0.0561,-0.0593,-0.066,-0.0694,-0.072,-0.0731,-0.0755,-0.0743,-0.0733,-0.0752,-0.0752,-0.0752,-0.0756,-0.0756,-0.0745,-0.0745,-0.0745,0,-0.0195,-0.0248,-0.0289,-0.0323,-0.035,-0.0389,-0.0418,-0.0449,-0.0512,-0.053,-0.0536,-0.062,-0.0657,-0.0705,-0.0707,-0.0727,-0.0736,-0.0737,-0.0749,-0.0749,-0.075,-0.0754,-0.0755,-0.0743,-0.0743,-0.0743,-0.0743,0,-0.0223,-0.0259,-0.0276,-0.0335,-0.0364,-0.0395,-0.0441,-0.0465,-0.0489,-0.0521,-0.0564,-0.0609,-0.0658,-0.0671,-0.0696,-0.0722,-0.0725,-0.0739,-0.0751,-0.0747,-0.0751,-0.0753,-0.074,-0.0741,-0.0741,-0.0742,0,0,-0.0203,-0.0282,-0.0287,-0.0313,-0.0373,-0.0402,-0.0434,-0.0481,-0.05,-0.0541,-0.0569,-0.0624,-0.0637,-0.0667,-0.0695,-0.0712,-0.0717,-0.0725,-0.0727,-0.0722,-0.0748,-0.0736,-0.0738,-0.0732,-0.0733,-0.0733,-0.0743,0,-0.0212,-0.0272,-0.0309,-0.0354,-0.0387,-0.0423,-0.0451,-0.049,-0.052,-0.0553,-0.0587,-0.0624,-0.0639,-0.0657,-0.0675,-0.0712,-0.0723,-0.0712,-0.0759,-0.076,-0.0746,-0.074,-0.0729,-0.0737,-0.0745,-0.0746,-0.0746,0,-0.0232,-0.0271,-0.0318,-0.0372,-0.0388,-0.0412,-0.0457,-0.0488,-0.0532,-0.0553,-0.0585,-0.0613,-0.0648,-0.0655,-0.0704,-0.0696,-0.0717,-0.0737,-0.0739,-0.0746,-0.0753,-0.0747,-0.074,-0.0741,-0.0749,-0.0749,-0.0749,0,-0.0212,-0.0276,-0.0313,-0.0334,-0.0398,-0.0414,-0.0441,-0.0486,-0.0511,-0.055,-0.0566,-0.0609,-0.0633,-0.0665,-0.0704,-0.0706,-0.0748,-0.0759,-0.0766,-0.0765,-0.0775,-0.0774,-0.0772,-0.0787,-0.0787,-0.0787,-0.0787,0,-0.0219,-0.0247,-0.0304,-0.0327,-0.0358,-0.04,-0.043,-0.046,-0.0499,-0.0528,-0.0561,-0.0587,-0.0636,-0.0668,-0.0699,-0.0734,-0.0744,-0.0762,-0.077,-0.0759,-0.0757,-0.0775,-0.0775,-0.0787,-0.0787,-0.0787,-0.0787,0,-0.0203,-0.0243,-0.0285,-0.0341,-0.0355,-0.0376,-0.0424,-0.0447,-0.0478,-0.0514,-0.0524,-0.0573,-0.0613,-0.0654,-0.0708,-0.0728,-0.0761,-0.0772,-0.0746,-0.0751,-0.0756,-0.0755,-0.0765,-0.0769,-0.0781,-0.0781,-0.078,0,-0.0206,-0.0228,-0.0285,-0.0306,-0.0332,-0.0366,-0.0391,-0.0432,-0.0457,-0.0508,-0.0525,-0.0566,-0.0602,-0.0662,-0.0703,-0.0743,-0.0756,-0.0756,-0.0762,-0.075,-0.0756,-0.0754,-0.0756,-0.0755,-0.0755,-0.0754,-0.0754,0,-0.0206,-0.0223,-0.0258,-0.0299,-0.0328,-0.0363,-0.0399,-0.0414,-0.0462,-0.0488,-0.0528,-0.0555,-0.0609,-0.065,-0.0695,-0.0723,-0.0746,-0.0752,-0.0755,-0.0746,-0.073,-0.0738,-0.0742,-0.0752,-0.0752,-0.0752,-0.0752,-0.0752,-0.0199,-0.022,-0.0263,-0.03,-0.0331,-0.0363,-0.0387,-0.042,-0.0454,-0.05,-0.0522,-0.0562,-0.0604,-0.0667,-0.0694,-0.0725,-0.0732,-0.0738,-0.0739,-0.074,-0.0737,-0.0723,-0.0734,-0.0734,-0.0734,-0.0734,-0.0734,0,-0.0201,-0.023,-0.0263,-0.0312,-0.0341,-0.0359,-0.0399,-0.0422,-0.0456,-0.0493,-0.0527,-0.0572,-0.061,-0.0653,-0.0694,-0.0711,-0.0723,-0.072,-0.072,-0.0726,-0.0729,-0.0722,-0.071,-0.071,-0.071,-0.071,-0.071,-0.071,-0.0205,-0.0241,-0.0263,-0.0313,-0.0342,-0.0381,-0.0402,-0.0431,-0.0461,-0.0509,-0.0541,-0.0568,-0.0607,-0.0651,-0.0687,-0.0699,-0.0713,-0.0707,-0.0722,-0.0724,-0.0726,-0.0728,-0.0721,-0.071,-0.071,-0.0716,-0.0716,-0.0716]}]]